PSCJT SBJP-SBFZ

Flight info

Callsign PSCJT
Flight time N/A
Altitude 30000
Route SAFUC NTL Z35 MSS
Aircraft C550/M-SDFGR/C

Departure

Time 2026-04-30 00:55
Airport Presidente Castro Pinto International Airport (SBJP)

Arrival

Time N/A
Airport Pinto Martins International Airport (SBFZ)
Time Latitude Longitude Altitude Speed Heading
2026-04-30 00:48 -7.14410 -34.95206 218 ft 0 kts 292°
2026-04-30 00:49 -7.14410 -34.95207 218 ft 2 kts 292°
2026-04-30 00:49 -7.14414 -34.95257 218 ft 7 kts 228°
2026-04-30 00:50 -7.14467 -34.95280 218 ft 10 kts 202°
2026-04-30 00:50 -7.14508 -34.95297 218 ft 3 kts 202°
2026-04-30 00:50 -7.14534 -34.95308 218 ft 11 kts 202°
2026-04-30 00:50 -7.14564 -34.95360 218 ft 9 kts 317°
2026-04-30 00:51 -7.14513 -34.95408 218 ft 15 kts 317°
2026-04-30 00:51 -7.14414 -34.95502 218 ft 24 kts 315°
2026-04-30 00:51 -7.14278 -34.95639 218 ft 31 kts 315°
2026-04-30 00:51 -7.14130 -34.95786 218 ft 18 kts 318°
2026-04-30 00:52 -7.14057 -34.95820 218 ft 5 kts 326°
2026-04-30 00:52 -7.14048 -34.95846 218 ft 4 kts 232°
2026-04-30 00:52 -7.14061 -34.95851 218 ft 0 kts 169°
2026-04-30 00:52 -7.14084 -34.95832 218 ft 8 kts 134°
2026-04-30 00:53 -7.14088 -34.95828 218 ft 0 kts 136°
2026-04-30 00:54 -7.14089 -34.95828 218 ft 0 kts 136°
2026-04-30 00:54 -7.14098 -34.95819 218 ft 9 kts 136°
2026-04-30 00:55 -7.14381 -34.95535 218 ft 117 kts 135°
2026-04-30 00:55 -7.15152 -34.94756 610 ft 187 kts 134°
2026-04-30 00:55 -7.17577 -34.92340 2274 ft 267 kts 135°
2026-04-30 00:56 -7.18603 -34.90760 2255 ft 271 kts 108°
2026-04-30 00:56 -7.18743 -34.88877 2577 ft 273 kts 81°
2026-04-30 00:56 -7.18053 -34.87105 2910 ft 272 kts 62°
2026-04-30 00:56 -7.17296 -34.85342 3196 ft 273 kts 72°
2026-04-30 00:57 -7.16828 -34.83477 3504 ft 274 kts 78°
2026-04-30 00:57 -7.16451 -34.81575 3790 ft 274 kts 79°
2026-04-30 00:57 -7.15989 -34.79689 4033 ft 276 kts 66°
2026-04-30 00:57 -7.14291 -34.79987 4328 ft 276 kts 335°
2026-04-30 00:58 -7.12655 -34.80993 4648 ft 277 kts 323°
2026-04-30 00:58 -7.11130 -34.82234 4958 ft 277 kts 319°
2026-04-30 00:58 -7.09661 -34.83531 5242 ft 279 kts 318°
2026-04-30 00:58 -7.08187 -34.84834 5520 ft 281 kts 319°
2026-04-30 00:59 -7.06690 -34.86119 5797 ft 283 kts 320°
2026-04-30 00:59 -7.05169 -34.87381 6073 ft 285 kts 321°
2026-04-30 00:59 -7.03617 -34.88627 6350 ft 287 kts 322°
2026-04-30 00:59 -7.02047 -34.89856 6625 ft 289 kts 322°
2026-04-30 01:00 -7.00474 -34.91090 6896 ft 291 kts 319°
2026-04-30 01:00 -6.99234 -34.92651 7188 ft 291 kts 301°
2026-04-30 01:00 -6.98303 -34.94437 7493 ft 291 kts 295°
2026-04-30 01:00 -6.97479 -34.96285 7787 ft 290 kts 294°
2026-04-30 01:01 -6.96669 -34.98134 8063 ft 291 kts 294°
2026-04-30 01:01 -6.96151 -34.99281 8238 ft 288 kts 295°
2026-04-30 01:01 -6.95498 -35.00678 8444 ft 295 kts 295°
2026-04-30 01:01 -6.94593 -35.02525 8720 ft 295 kts 297°
2026-04-30 01:02 -6.93661 -35.04350 8996 ft 295 kts 297°
2026-04-30 01:02 -6.92699 -35.06170 9273 ft 295 kts 298°
2026-04-30 01:02 -6.91717 -35.07985 9551 ft 295 kts 298°
2026-04-30 01:02 -6.90833 -35.09595 9795 ft 298 kts 299°
2026-04-30 01:03 -6.90506 -35.10176 9889 ft 298 kts 300°
2026-04-30 01:03 -6.89145 -35.11719 10161 ft 300 kts 324°
2026-04-30 01:03 -6.87260 -35.12531 10466 ft 300 kts 348°
2026-04-30 01:04 -6.85194 -35.12707 10790 ft 299 kts 359°
2026-04-30 01:04 -6.83122 -35.12662 11089 ft 299 kts
2026-04-30 01:04 -6.81026 -35.12590 11369 ft 298 kts
2026-04-30 01:04 -6.78937 -35.12563 11646 ft 299 kts 360°
2026-04-30 01:05 -6.76831 -35.12601 11923 ft 301 kts 358°
2026-04-30 01:05 -6.74723 -35.12701 12199 ft 304 kts 356°
2026-04-30 01:05 -6.72616 -35.12854 12474 ft 307 kts 355°
2026-04-30 01:05 -6.70494 -35.13051 12750 ft 310 kts 354°
2026-04-30 01:06 -6.68354 -35.13283 13029 ft 311 kts 353°
2026-04-30 01:06 -6.66212 -35.13541 13307 ft 310 kts 353°
2026-04-30 01:06 -6.64064 -35.13819 13586 ft 310 kts 352°
2026-04-30 01:06 -6.61906 -35.14111 13863 ft 312 kts 352°
2026-04-30 01:07 -6.59738 -35.14416 14139 ft 316 kts 352°
2026-04-30 01:07 -6.57561 -35.14728 14414 ft 319 kts 352°
2026-04-30 01:07 -6.55382 -35.15047 14691 ft 319 kts 352°
2026-04-30 01:07 -6.53191 -35.15372 14970 ft 318 kts 352°
2026-04-30 01:08 -6.50993 -35.15700 15250 ft 318 kts 351°
2026-04-30 01:08 -6.48787 -35.16032 15528 ft 321 kts 351°
2026-04-30 01:08 -6.46578 -35.16366 15803 ft 324 kts 351°
2026-04-30 01:08 -6.44356 -35.16702 16081 ft 325 kts 351°
2026-04-30 01:09 -6.42126 -35.17041 16361 ft 324 kts 351°
2026-04-30 01:09 -6.39899 -35.17380 16638 ft 324 kts 351°
2026-04-30 01:09 -6.37650 -35.17722 16915 ft 328 kts 351°
2026-04-30 01:09 -6.35396 -35.18066 17191 ft 330 kts 351°
2026-04-30 01:10 -6.33137 -35.18410 17537 ft 329 kts 351°
2026-04-30 01:10 -6.30876 -35.18755 17914 ft 328 kts 351°
2026-04-30 01:10 -6.28648 -35.19095 18285 ft 330 kts 351°
2026-04-30 01:10 -6.26376 -35.19442 18662 ft 335 kts 351°
2026-04-30 01:11 -6.24075 -35.19793 19043 ft 335 kts 351°
2026-04-30 01:11 -6.21752 -35.20147 19423 ft 338 kts 351°
2026-04-30 01:11 -6.19413 -35.20504 19800 ft 343 kts 351°
2026-04-30 01:11 -6.17054 -35.20864 20179 ft 344 kts 351°
2026-04-30 01:12 -6.14682 -35.21226 20557 ft 346 kts 351°
2026-04-30 01:12 -6.12294 -35.21591 20933 ft 351 kts 351°
2026-04-30 01:12 -6.09872 -35.21960 21313 ft 352 kts 351°
2026-04-30 01:12 -6.07438 -35.22331 21691 ft 354 kts 351°
2026-04-30 01:13 -6.04997 -35.22704 22067 ft 359 kts 351°
2026-04-30 01:13 -6.02532 -35.23080 22446 ft 359 kts 351°
2026-04-30 01:13 -6.00049 -35.23459 22824 ft 361 kts 351°
2026-04-30 01:13 -5.97551 -35.23840 23201 ft 365 kts 351°
2026-04-30 01:14 -5.95046 -35.24222 23578 ft 366 kts 351°
2026-04-30 01:14 -5.92518 -35.24608 23954 ft 369 kts 351°
2026-04-30 01:14 -5.89986 -35.25000 24329 ft 372 kts 350°
2026-04-30 01:14 -5.89819 -35.25030 24354 ft 371 kts 349°
2026-04-30 01:15 -5.88618 -35.25339 24530 ft 372 kts 341°
2026-04-30 01:15 -5.86358 -35.26612 24911 ft 375 kts 321°
2026-04-30 01:15 -5.84667 -35.28602 25295 ft 378 kts 300°
2026-04-30 01:16 -5.83689 -35.31048 25688 ft 379 kts 285°
2026-04-30 01:16 -5.83141 -35.33637 26078 ft 382 kts 279°
2026-04-30 01:16 -5.82753 -35.36287 26463 ft 385 kts 277°
2026-04-30 01:16 -5.82394 -35.38949 26842 ft 387 kts 278°
2026-04-30 01:17 -5.81999 -35.41639 27221 ft 389 kts 279°
2026-04-30 01:17 -5.81546 -35.44319 27597 ft 392 kts 280°
2026-04-30 01:17 -5.81026 -35.47008 27974 ft 394 kts 282°
2026-04-30 01:17 -5.80441 -35.49705 28352 ft 396 kts 283°
2026-04-30 01:18 -5.79803 -35.52391 28727 ft 398 kts 284°
2026-04-30 01:18 -5.79115 -35.55088 29104 ft 400 kts 285°
2026-04-30 01:18 -5.78384 -35.57794 29482 ft 403 kts 285°
2026-04-30 01:18 -5.77619 -35.60504 29806 ft 405 kts 286°
2026-04-30 01:19 -5.76828 -35.63216 29942 ft 407 kts 287°
2026-04-30 01:19 -5.76009 -35.65947 29990 ft 410 kts 287°
2026-04-30 01:19 -5.74309 -35.71446 29988 ft 413 kts 288°
2026-04-30 01:20 -5.72566 -35.76940 29995 ft 414 kts 288°
2026-04-30 01:20 -5.70794 -35.82436 29999 ft 414 kts 288°
2026-04-30 01:21 -5.69053 -35.87790 29991 ft 414 kts 289°
2026-04-30 01:21 -5.67247 -35.93306 29971 ft 418 kts 289°
2026-04-30 01:22 -5.65421 -35.98858 29972 ft 420 kts 289°
2026-04-30 01:22 -5.63589 -36.04412 29986 ft 418 kts 289°
2026-04-30 01:23 -5.61761 -36.09948 29942 ft 422 kts 290°
2026-04-30 01:23 -5.59875 -36.15638 29910 ft 436 kts 287°
2026-04-30 01:24 -5.57944 -36.21473 29909 ft 444 kts 288°
2026-04-30 01:24 -5.55998 -36.27358 29920 ft 446 kts 288°
2026-04-30 01:25 -5.54036 -36.33280 29917 ft 448 kts 288°
2026-04-30 01:25 -5.52065 -36.39220 29907 ft 450 kts 287°
2026-04-30 01:26 -5.50084 -36.45193 29907 ft 452 kts 288°
2026-04-30 01:26 -5.48103 -36.51166 29914 ft 452 kts 288°
2026-04-30 01:27 -5.46117 -36.57148 29914 ft 451 kts 287°
2026-04-30 01:27 -5.44133 -36.63119 29906 ft 452 kts 287°
2026-04-30 01:28 -5.42140 -36.69117 29905 ft 453 kts 287°
2026-04-30 01:28 -5.40150 -36.75105 29905 ft 454 kts 287°
2026-04-30 01:29 -5.38153 -36.81111 29905 ft 453 kts 287°
2026-04-30 01:29 -5.36161 -36.87103 29905 ft 454 kts 287°
2026-04-30 01:30 -5.35575 -36.88864 29471 ft 447 kts 287°
2026-04-30 01:31 -5.34614 -36.91763 27398 ft 455 kts 288°
2026-04-30 01:31 -5.33600 -36.94756 26745 ft 455 kts 286°
2026-04-30 01:31 -5.32588 -36.97757 27322 ft 447 kts 286°
2026-04-30 01:31 -5.31601 -37.00702 27718 ft 442 kts 285°
2026-04-30 01:32 -5.30632 -37.03611 28155 ft 441 kts 285°
2026-04-30 01:32 -5.29663 -37.06533 28604 ft 440 kts 285°
2026-04-30 01:32 -5.28695 -37.09453 29056 ft 440 kts 285°
2026-04-30 01:32 -5.27735 -37.12354 29505 ft 440 kts 285°
2026-04-30 01:33 -5.26767 -37.15278 29774 ft 442 kts 285°
2026-04-30 01:33 -5.25797 -37.18204 29885 ft 443 kts 286°
2026-04-30 01:33 -5.23853 -37.24061 29907 ft 444 kts 286°
2026-04-30 01:34 -5.21896 -37.29943 29907 ft 445 kts 286°
2026-04-30 01:34 -5.20268 -37.34829 29907 ft 445 kts 286°
2026-04-30 01:36 -5.17998 -37.39271 29912 ft 446 kts 307°
2026-04-30 01:37 -5.13470 -37.43543 29909 ft 449 kts 321°
2026-04-30 01:37 -5.08419 -37.47249 29907 ft 452 kts 324°
2026-04-30 01:38 -5.03293 -37.50893 29914 ft 453 kts 325°
2026-04-30 01:38 -4.98218 -37.54631 29917 ft 452 kts 323°
2026-04-30 01:39 -4.94114 -37.57890 29918 ft 452 kts 321°
2026-04-30 01:39 -4.89274 -37.61909 29918 ft 452 kts 321°
2026-04-30 01:40 -4.84459 -37.65964 29918 ft 452 kts 321°
2026-04-30 01:40 -4.79645 -37.70017 29918 ft 452 kts 321°
2026-04-30 01:41 -4.74828 -37.74055 29917 ft 452 kts 321°
2026-04-30 01:41 -4.70003 -37.78084 29914 ft 452 kts 321°
2026-04-30 01:42 -4.65174 -37.82102 29915 ft 452 kts 321°
2026-04-30 01:42 -4.60328 -37.86125 29915 ft 452 kts 321°
2026-04-30 01:43 -4.55495 -37.90132 29914 ft 452 kts 321°
2026-04-30 01:43 -4.50652 -37.94145 29913 ft 452 kts 321°
2026-04-30 01:44 -4.45868 -37.98185 29912 ft 451 kts 317°
2026-04-30 01:44 -4.40954 -38.02113 29372 ft 451 kts 327°
2026-04-30 01:45 -4.38340 -38.03819 28918 ft 449 kts 329°
2026-04-30 01:45 -4.35683 -38.05447 28469 ft 447 kts 331°
2026-04-30 01:45 -4.33012 -38.07034 28017 ft 444 kts 332°
2026-04-30 01:45 -4.30357 -38.08599 27565 ft 442 kts 332°
2026-04-30 01:46 -4.27719 -38.10158 27114 ft 439 kts 332°
2026-04-30 01:46 -4.25111 -38.11713 26663 ft 436 kts 332°
2026-04-30 01:46 -4.22525 -38.13275 26212 ft 433 kts 332°
2026-04-30 01:46 -4.19963 -38.14841 25761 ft 430 kts 332°
2026-04-30 01:47 -4.17429 -38.16408 25309 ft 426 kts 332°
2026-04-30 01:47 -4.14926 -38.17972 25032 ft 424 kts 329°
2026-04-30 01:47 -4.12428 -38.19540 24931 ft 424 kts 328°
2026-04-30 01:47 -4.09927 -38.21122 24907 ft 427 kts 328°
2026-04-30 01:48 -4.07435 -38.22708 24906 ft 426 kts 328°
2026-04-30 01:48 -4.04926 -38.24314 24907 ft 427 kts 328°
2026-04-30 01:48 -4.02425 -38.25920 24905 ft 429 kts 328°
2026-04-30 01:48 -3.99922 -38.27531 24906 ft 427 kts 327°
2026-04-30 01:49 -3.97432 -38.29138 24905 ft 429 kts 327°
2026-04-30 01:49 -3.94926 -38.30758 24881 ft 430 kts 327°
2026-04-30 01:49 -3.92430 -38.32381 24445 ft 428 kts 327°
2026-04-30 01:49 -3.90212 -38.34349 23990 ft 426 kts 309°
2026-04-30 01:50 -3.88710 -38.36872 23546 ft 423 kts 290°
2026-04-30 01:50 -3.87971 -38.39712 23112 ft 421 kts 277°
2026-04-30 01:50 -3.87711 -38.42616 22679 ft 418 kts 270°
2026-04-30 01:50 -3.87666 -38.45503 22241 ft 414 kts 268°
2026-04-30 01:51 -3.87663 -38.48362 21794 ft 409 kts 268°
2026-04-30 01:51 -3.87592 -38.51183 21350 ft 405 kts 271°
2026-04-30 01:51 -3.87571 -38.51586 21286 ft 403 kts 271°
2026-04-30 01:52 -3.87492 -38.52646 21119 ft 403 kts 274°
2026-04-30 01:52 -3.87082 -38.55412 20677 ft 399 kts 279°
2026-04-30 01:52 -3.86477 -38.58122 20237 ft 397 kts 283°
2026-04-30 01:52 -3.85770 -38.60791 19764 ft 395 kts 285°
2026-04-30 01:53 -3.85022 -38.63416 19269 ft 392 kts 285°
2026-04-30 01:53 -3.84263 -38.66029 18768 ft 390 kts 285°
2026-04-30 01:53 -3.83521 -38.68621 18267 ft 387 kts 285°
2026-04-30 01:53 -3.83276 -38.69493 14694 ft 346 kts 285°
2026-04-30 01:54 -3.82649 -38.71822 14192 ft 346 kts 283°
2026-04-30 01:54 -3.81722 -38.74027 13693 ft 340 kts 301°
2026-04-30 01:54 -3.81218 -38.74710 4679 ft 297 kts 308°
2026-04-30 01:54 -3.79590 -38.75946 4173 ft 299 kts 337°
2026-04-30 01:55 -3.77577 -38.76324 3994 ft 302 kts
2026-04-30 01:55 -3.75580 -38.75789 3941 ft 300 kts 30°
2026-04-30 01:55 -3.74105 -38.74540 3908 ft 252 kts 57°
2026-04-30 01:55 -3.73433 -38.73124 3901 ft 205 kts 76°
2026-04-30 01:56 -3.73182 -38.71850 3873 ft 172 kts 90°
2026-04-30 01:56 -3.73344 -38.70788 3802 ft 144 kts 107°
2026-04-30 01:56 -3.73638 -38.69876 3593 ft 133 kts 111°
2026-04-30 01:56 -3.73995 -38.69050 3151 ft 128 kts 116°
2026-04-30 01:57 -3.74027 -38.68987 3106 ft 128 kts 116°
2026-04-30 01:57 -3.74100 -38.68847 3003 ft 129 kts 117°
2026-04-30 01:57 -3.74407 -38.68320 2570 ft 134 kts 119°
2026-04-30 01:58 -3.74878 -38.67499 2030 ft 134 kts 106°
2026-04-30 01:58 -3.75102 -38.66611 1655 ft 131 kts 96°
2026-04-30 01:58 -3.75150 -38.65706 1334 ft 129 kts 92°
2026-04-30 01:58 -3.75111 -38.64829 1138 ft 121 kts 89°
2026-04-30 01:59 -3.76471 -38.57448 867 ft 118 kts 105°
2026-04-30 01:59 -3.76663 -38.56693 702 ft 108 kts 110°
2026-04-30 01:59 -3.76903 -38.55962 474 ft 117 kts 110°
2026-04-30 02:00 -3.77119 -38.55164 349 ft 111 kts 107°
2026-04-30 02:00 -3.77305 -38.54481 150 ft 96 kts 108°
2026-04-30 02:00 -3.77459 -38.53930 85 ft 72 kts 105°